Wind_Speed
21 20 19 19 20 20 20 20 19 19 19 17 15 14 12 10 9 10 10 10 11 11 11 11 11 11 11 12 11 11 11 11 11 11 11 11 10 10 10 10 11 11
21 21 20 21 21 21 21 20 19 19 20 19 17 15 13 13 12 12 12 12 12 12 12 12 12 12 12 12 12 12 11 11 12 11 12 12 11 10 10 10 11 11
21 22 21 21 22 22 21 21 20 20 21 20 18 17 17 16 15 15 14 14 13 13 13 13 13 14 13 13 12 12 12 12 12 12 12 13 12 11 11 11 11 12
22 22 22 22 22 22 22 22 21 21 22 21 20 20 20 19 18 17 17 16 14 14 14 15 15 15 15 14 13 12 13 13 13 13 13 13 13 12 11 11 12 12
23 22 22 23 23 23 24 24 23 23 24 23 22 22 22 21 20 20 20 19 18 17 17 17 18 18 17 16 15 13 13 14 15 15 15 14 14 13 13 12 12 12
25 24 23 23 24 25 25 25 25 25 25 25 25 24 25 24 24 24 24 24 25 24 22 21 21 22 22 20 18 16 15 16 17 18 18 17 15 15 14 13 12 12
26 25 25 25 26 27 27 27 28 28 28 28 28 27 27 28 28 28 29 29 30 29 28 27 25 26 27 26 23 21 21 21 22 23 22 19 18 16 15 14 12 12
27 27 27 27 28 28 28 29 30 30 31 30 30 29 30 32 33 33 34 33 33 33 32 31 29 27 25 26 25 25 27 28 27 26 24 21 19 18 16 14 13 12
28 29 29 29 30 30 29 30 32 33 32 31 30 30 31 32 33 36 38 38 37 36 35 34 32 27 25 27 27 26 28 30 28 27 26 22 20 19 17 15 14 13
29 29 29 31 31 32 32 33 34 34 33 31 31 32 32 31 31 34 38 40 41 40 39 39 36 32 31 32 30 27 27 29 29 29 28 25 22 20 18 16 15 14
27 28 28 29 30 33 33 32 32 32 32 33 33 34 34 34 33 34 35 36 40 42 43 42 40 37 36 35 33 30 28 29 30 31 30 27 24 21 19 18 17 15
26 26 26 26 28 31 32 31 31 30 31 32 33 34 36 35 36 37 36 35 37 40 44 44 42 41 40 38 37 35 32 32 32 32 30 29 26 23 20 19 19 17
25 24 24 23 26 28 30 30 30 31 32 34 33 33 36 38 38 38 39 39 38 39 41 44 44 44 43 42 41 40 37 35 34 32 29 29 28 24 21 20 20 18
23 23 23 24 26 28 29 30 29 30 33 36 36 34 34 37 38 38 39 42 44 42 41 43 45 46 46 44 43 42 39 36 34 31 28 27 28 26 22 21 21 19
23 24 25 26 27 27 29 30 29 28 31 36 37 34 32 34 36 37 39 43 46 46 44 44 45 46 47 46 43 42 39 36 33 30 26 26 29 27 24 22 21 20
25 26 27 27 27 27 28 30 30 29 31 34 36 33 31 32 34 36 38 41 45 48 47 47 47 47 48 47 44 42 39 36 33 29 26 26 29 29 26 23 22 21
27 27 28 28 28 28 29 30 31 30 31 33 34 32 31 32 33 36 36 37 42 46 48 48 47 47 49 48 46 43 39 34 32 30 28 28 30 31 28 25 24 23
29 29 30 31 30 30 30 30 30 30 30 32 33 33 33 33 34 35 35 35 39 42 43 44 44 45 48 49 47 43 38 33 31 31 30 30 31 32 29 26 26 24
30 31 32 31 31 30 28 28 29 30 31 32 33 33 34 34 34 33 33 35 38 39 38 40 42 44 46 47 45 41 37 35 32 31 31 31 32 33 31 29 28 26
32 32 31 30 29 28 28 29 30 30 30 31 31 31 31 32 32 32 32 35 37 37 36 38 41 43 43 42 41 38 35 35 34 33 32 32 33 34 33 32 31 28
32 31 30 29 29 27 26 26 26 26 26 26 27 28 28 29 30 30 32 35 37 36 35 35 37 40 39 36 36 36 35 34 35 35 34 33 34 35 35 35 33 30
30 29 29 28 26 23 22 21 21 22 22 23 24 24 24 25 28 29 31 34 36 36 34 34 35 38 37 33 32 33 34 34 36 36 35 34 35 36 37 37 35 31
29 28 27 25 22 19 19 19 19 19 19 20 21 21 21 22 24 27 29 32 36 36 34 34 33 34 35 33 32 33 33 35 37 36 35 35 36 38 39 37 34 31
27 26 24 21 18 17 17 17 17 17 17 18 18 18 19 21 23 26 28 32 36 37 35 34 32 32 33 34 34 34 34 36 37 36 36 36 37 37 38 36 34 32
25 23 20 17 16 17 18 18 18 18 17 18 18 19 20 23 25 27 29 32 35 36 34 34 33 32 31 33 35 36 36 37 37 36 36 37 37 36 37 36 34 33
23 19 15 15 16 18 20 20 20 20 19 19 20 21 23 26 27 27 28 31 32 32 31 32 33 33 34 35 36 37 38 37 37 36 36 36 35 35 36 35 34 33
Wind_Direction
209 210 210 211 213 212 211 213 217 220 221 224 226 230 236 246 257 269 281 289 294 298 301 305 311 316 322 327 329 326 325 326 324 318 309 300 293 290 289 289 292 293
211 211 212 213 216 217 216 220 223 224 226 227 229 235 242 249 258 268 278 285 290 293 296 298 302 307 313 319 321 320 321 321 321 318 308 298 291 286 285 288 293 295
213 213 215 216 218 220 221 223 226 226 228 229 232 239 245 250 257 266 273 279 283 287 290 292 294 298 304 310 313 314 316 316 317 317 308 297 290 285 285 290 293 295
216 217 218 219 221 223 224 226 228 228 229 231 234 240 247 252 258 264 270 275 277 279 284 287 289 291 293 299 304 308 312 314 315 314 307 296 289 285 285 289 292 292
220 221 221 222 225 226 227 229 232 231 231 235 239 244 251 256 259 264 269 273 275 276 279 283 287 289 288 289 295 303 312 315 316 314 305 295 287 283 283 287 289 289
224 224 225 226 227 229 231 233 235 235 236 240 245 250 256 259 261 266 271 275 277 276 277 281 286 289 289 290 291 295 302 307 311 311 305 294 285 280 281 284 284 286
229 229 229 229 230 232 234 236 238 238 239 244 250 255 260 263 264 266 270 272 275 276 276 278 282 288 293 293 289 288 289 290 295 299 297 290 281 277 278 280 281 285
234 235 234 233 234 236 237 239 240 240 243 249 256 262 267 269 268 268 272 274 274 274 276 278 281 287 293 293 288 285 282 282 286 288 287 282 276 275 277 278 280 284
237 239 239 239 240 241 242 242 241 244 248 255 262 268 274 277 275 272 274 275 275 274 275 276 277 280 286 291 292 288 280 278 283 287 284 277 271 273 275 276 279 281
238 240 241 243 245 245 245 245 247 251 255 260 263 268 275 281 282 278 275 273 273 273 274 276 277 277 281 287 292 292 284 279 284 288 285 278 270 270 273 274 276 278
235 238 240 244 246 247 248 252 257 263 264 263 265 269 275 280 281 280 279 275 273 272 274 276 278 277 277 281 287 290 289 286 288 289 286 278 270 267 270 271 273 273
232 234 237 242 245 248 253 257 260 266 270 270 270 271 275 280 281 280 282 280 276 275 275 275 275 275 276 279 283 289 294 296 293 289 285 279 270 264 266 269 270 270
232 235 239 244 247 251 258 260 259 262 270 277 279 275 274 280 282 282 283 281 278 279 279 277 274 273 275 278 282 288 296 300 296 287 282 277 268 261 262 266 268 268
235 239 242 246 249 253 260 264 262 262 268 277 283 282 280 281 284 285 284 280 278 279 281 279 275 273 275 278 281 286 293 300 296 286 278 273 265 259 259 263 266 267
236 240 242 245 249 254 261 265 268 268 268 273 280 284 284 284 284 285 283 279 278 277 279 280 278 276 275 277 281 285 290 298 296 284 275 269 264 259 258 261 265 267
236 237 240 245 250 255 260 264 268 269 267 270 275 280 281 280 280 281 281 280 279 277 276 278 280 278 276 277 281 284 288 292 291 282 273 269 264 259 258 259 263 266
236 236 239 243 248 251 257 261 265 267 267 269 273 275 275 273 273 276 278 279 278 276 275 276 278 278 277 277 279 283 286 287 284 279 275 271 265 260 258 258 261 265
236 237 240 244 248 252 255 258 260 263 266 269 273 275 275 274 273 274 275 274 274 274 274 274 276 277 277 277 278 281 282 280 278 278 277 273 266 260 258 258 259 262
235 239 244 248 251 252 253 254 256 261 265 269 273 275 276 276 276 275 273 271 271 271 271 271 271 272 274 276 276 277 277 276 275 276 276 273 266 260 257 257 258 260
236 242 246 248 250 251 253 255 259 262 265 267 270 271 272 274 274 274 273 271 269 269 268 269 269 270 271 272 273 273 273 273 273 272 273 272 265 258 255 256 257 259
238 242 245 248 251 252 254 255 257 258 259 262 265 268 271 271 270 271 272 271 270 268 266 266 269 270 269 267 267 267 268 270 270 268 270 269 263 256 253 254 256 259
236 240 244 247 249 249 247 247 249 252 255 260 265 269 272 272 271 272 274 274 274 271 266 263 265 267 266 263 258 258 261 266 266 266 267 266 262 256 252 253 257 262
235 239 242 243 244 245 246 248 251 255 258 263 268 272 276 279 279 280 280 278 276 273 267 263 262 262 263 261 252 247 253 260 261 261 262 263 260 256 253 254 258 263
235 237 238 242 248 253 258 261 262 264 267 271 277 283 288 290 291 289 285 281 278 273 266 261 260 259 259 258 249 242 245 252 254 255 258 260 258 255 254 255 257 262
233 234 240 252 263 269 273 274 273 274 278 284 292 298 301 303 301 295 288 282 277 273 266 261 257 255 254 254 248 241 240 244 247 251 256 259 257 253 252 253 255 260
231 238 254 268 275 280 282 282 282 285 289 293 299 305 308 309 307 297 287 282 279 277 272 266 259 254 251 251 247 242 239 241 244 250 254 255 254 252 250 251 254 261
Height
3185 3186 3187 3188 3189 3189 3190 3191 3192 3194 3194 3195 3195 3195 3196 3196 3196 3196 3196 3196 3195 3195 3195 3194 3194 3193 3192 3192 3191 3190 3190 3189 3188 3188 3187 3186 3186 3185 3185 3184 3184 3183
3183 3184 3185 3186 3187 3188 3189 3190 3191 3192 3193 3193 3193 3194 3194 3195 3195 3195 3195 3194 3194 3194 3194 3193 3193 3192 3191 3190 3190 3189 3189 3188 3187 3187 3186 3186 3185 3184 3184 3183 3183 3182
3181 3182 3183 3184 3186 3187 3188 3189 3190 3190 3191 3191 3192 3192 3192 3193 3193 3193 3193 3193 3193 3193 3192 3192 3191 3191 3190 3189 3188 3188 3187 3187 3186 3186 3185 3184 3184 3183 3183 3182 3182 3181
3179 3180 3182 3183 3184 3185 3186 3187 3188 3188 3189 3189 3190 3191 3190 3191 3191 3192 3191 3191 3191 3191 3191 3190 3190 3189 3188 3187 3187 3186 3186 3185 3185 3184 3184 3183 3183 3182 3181 3181 3180 3180
3177 3178 3180 3181 3182 3184 3185 3185 3186 3186 3187 3188 3188 3188 3188 3189 3189 3189 3189 3189 3189 3189 3189 3188 3188 3188 3187 3187 3186 3185 3184 3184 3184 3183 3183 3182 3181 3181 3180 3180 3179 3178
3175 3176 3178 3179 3181 3182 3183 3183 3184 3184 3185 3186 3186 3186 3186 3187 3187 3187 3187 3187 3187 3187 3187 3186 3186 3186 3186 3186 3185 3184 3183 3182 3182 3183 3182 3181 3180 3179 3179 3178 3178 3177
3173 3175 3176 3178 3179 3180 3181 3181 3182 3183 3184 3184 3184 3184 3185 3185 3185 3185 3185 3184 3184 3184 3184 3184 3184 3184 3184 3185 3184 3183 3181 3180 3181 3181 3181 3180 3179 3178 3177 3177 3176 3176
3171 3173 3174 3176 3177 3178 3179 3179 3180 3181 3182 3182 3182 3182 3183 3182 3183 3182 3181 3181 3181 3180 3180 3180 3181 3182 3182 3182 3182 3181 3180 3179 3179 3179 3179 3177 3177 3176 3176 3175 3174 3174
3169 3171 3172 3173 3174 3175 3177 3178 3178 3178 3179 3179 3180 3180 3180 3179 3180 3179 3178 3178 3177 3177 3177 3176 3177 3178 3178 3179 3179 3178 3178 3177 3177 3177 3176 3175 3175 3174 3174 3173 3173 3172
3167 3168 3170 3171 3172 3173 3174 3175 3175 3175 3177 3178 3178 3178 3177 3176 3176 3176 3175 3175 3174 3173 3173 3173 3173 3174 3174 3175 3175 3175 3175 3175 3174 3174 3174 3174 3173 3172 3171 3171 3171 3170
3164 3166 3167 3168 3170 3170 3171 3171 3172 3173 3174 3174 3174 3174 3173 3172 3172 3172 3171 3172 3171 3170 3170 3170 3171 3171 3170 3171 3172 3172 3172 3173 3172 3172 3171 3171 3171 3170 3169 3168 3168 3168
3161 3163 3164 3166 3167 3167 3168 3169 3170 3170 3170 3170 3171 3171 3169 3168 3168 3168 3168 3169 3168 3168 3167 3167 3168 3167 3167 3167 3168 3169 3169 3169 3169 3169 3168 3168 3168 3167 3166 3166 3166 3166
3159 3160 3162 3163 3164 3164 3164 3165 3168 3168 3166 3165 3167 3168 3166 3165 3164 3164 3164 3165 3165 3165 3164 3164 3164 3163 3163 3164 3164 3165 3165 3166 3165 3165 3164 3165 3165 3164 3164 3164 3164 3164
3157 3158 3159 3160 3160 3161 3161 3161 3164 3165 3164 3162 3162 3164 3164 3162 3160 3160 3161 3160 3160 3161 3161 3161 3160 3160 3160 3160 3161 3161 3162 3162 3161 3160 3161 3161 3162 3161 3161 3161 3161 3161
3154 3155 3156 3156 3157 3158 3158 3158 3160 3162 3162 3160 3158 3159 3161 3159 3157 3156 3156 3156 3155 3156 3157 3157 3156 3156 3156 3157 3158 3158 3159 3158 3157 3157 3157 3158 3158 3158 3158 3158 3159 3158
3151 3151 3152 3152 3154 3155 3155 3155 3156 3157 3157 3156 3155 3156 3157 3156 3154 3153 3152 3152 3151 3152 3153 3152 3151 3152 3153 3153 3154 3155 3155 3155 3154 3154 3154 3154 3155 3155 3155 3156 3156 3156
3147 3148 3148 3149 3151 3152 3152 3152 3153 3153 3152 3152 3151 3152 3152 3151 3150 3149 3148 3148 3148 3147 3147 3147 3147 3148 3149 3150 3151 3151 3152 3152 3151 3151 3151 3151 3152 3152 3152 3153 3153 3153
3143 3144 3145 3146 3148 3149 3149 3150 3150 3149 3149 3149 3149 3148 3148 3147 3146 3145 3145 3144 3144 3143 3143 3143 3143 3144 3145 3146 3147 3147 3148 3148 3148 3148 3148 3148 3148 3148 3149 3149 3149 3149
3139 3140 3142 3143 3144 3145 3146 3147 3147 3146 3146 3146 3146 3146 3145 3143 3142 3142 3141 3140 3139 3139 3139 3138 3139 3139 3140 3141 3142 3143 3143 3143 3144 3144 3144 3144 3145 3145 3146 3145 3144 3146
3136 3137 3138 3139 3140 3142 3143 3143 3144 3144 3143 3143 3143 3142 3142 3141 3140 3139 3138 3136 3135 3135 3135 3134 3133 3134 3135 3137 3138 3138 3139 3139 3139 3139 3140 3140 3141 3141 3142 3141 3140 3142
3133 3134 3135 3136 3137 3139 3140 3140 3140 3140 3140 3139 3139 3138 3138 3138 3137 3135 3134 3132 3131 3130 3130 3130 3130 3129 3130 3132 3133 3133 3134 3134 3134 3134 3135 3136 3137 3137 3138 3137 3136 3138
3130 3131 3132 3133 3134 3135 3136 3137 3137 3136 3136 3136 3135 3134 3134 3134 3133 3131 3130 3129 3127 3126 3126 3126 3126 3125 3124 3126 3128 3129 3129 3129 3129 3129 3131 3132 3132 3133 3134 3134 3133 3134
3127 3128 3129 3130 3131 3132 3132 3132 3132 3132 3132 3132 3131 3131 3131 3130 3130 3128 3127 3125 3124 3122 3121 3121 3121 3120 3120 3121 3123 3124 3124 3124 3124 3125 3126 3127 3128 3129 3130 3131 3132 3132
3124 3125 3126 3127 3127 3128 3128 3128 3128 3128 3128 3129 3129 3128 3128 3127 3126 3125 3123 3121 3119 3118 3117 3117 3117 3117 3116 3116 3118 3119 3120 3119 3120 3121 3122 3122 3124 3125 3127 3128 3129 3129
3121 3122 3123 3123 3123 3124 3124 3124 3124 3125 3125 3125 3125 3125 3124 3123 3122 3121 3118 3117 3115 3113 3113 3113 3113 3113 3112 3112 3113 3114 3115 3115 3115 3116 3117 3118 3120 3122 3123 3124 3124 3124
3118 3119 3119 3119 3119 3120 3120 3120 3120 3121 3121 3121 3121 3120 3119 3118 3118 3116 3114 3112 3110 3110 3109 3109 3109 3109 3108 3107 3108 3110 3110 3111 3111 3112 3113 3114 3116 3117 3118 3119 3120 3121